Fort Wayne, IN

1:18 PM EDT on July 24, 2017 (GMT -0400)
Fort Wayne International

Weather History for KFWA - July, 2013

Change the Weather History Date:

Friday, July 19, 2013

  Actual Average Record
Temperature  
Mean Temperature 82 °F 74 °F  
Max Temperature 91 °F 84 °F 101 °F (1930)
Min Temperature 73 °F 63 °F 48 °F (1910)
Degree Days  
Heating Degree Days 0 0  
Month to date heating degree days 0 0  
Since 1 June heating degree days 19 29  
Since 1 July heating degree days 0 0  
Cooling Degree Days 17 9  
Month to date cooling degree days 191 171  
Year to date cooling degree days 484 410  
Since 1 June cooling degree days 379 353  
Growing Degree Days 32 (Base 50)    
Moisture  
Dew Point 73 °F    
Average Humidity 71    
Maximum Humidity 91    
Minimum Humidity 47    
Precipitation  
Precipitation 0.00 in 0.13 in 2.29 in (1963)
Month to date precipitation 2.47 2.63  
Year to date precipitation 26.05 21.59  
Snow  
Snow 0.00 in - - ()
Month to date snowfall 0.0  
Since 1 June snowfall 0.0  
Snow Depth 0.00 in    
Sea Level Pressure  
Sea Level Pressure 29.92 in    
Wind  
Wind Speed 11 mph (SW)    
Max Wind Speed 21 mph    
Max Gust Speed 29 mph    
Visibility 9 miles    
Events      
T = Trace of Precipitation, MM = Missing Value Source: NWS Daily Summary

Daily Weather History Graph

Daily Weather History Graph

Search for Another Location

Airport or City:

Trip Planner

Search our weather history database for the weather conditions in past years. The results will help you decide how hot, cold, wet, or windy it might be!

Date:

Astronomy

Jul. 19, 2013 Rise Set
Actual Time 6:25 AM EDT 9:08 PM EDT
Civil Twilight 5:52 AM EDT 9:40 PM EDT
Nautical Twilight 5:12 AM EDT 10:20 PM EDT
Astronomical Twilight 4:26 AM EDT 11:06 PM EDT
Moon 6:10 PM EDT (7/19) 3:05 AM EDT (7/19)
Length of Visible Light 15h 47m
Length of Day
14h 43m
Waxing Gibbous, 86% of the Moon is Illuminated
Jul 19
Waxing Gibbous
Jul 22
Full
Jul 29
Last Quarter
Aug 6
New
Aug 14
First Quarter

Hourly Weather History & Observations

Time (EDT) Temp. Heat Index Dew Point Humidity Pressure Visibility Wind Dir Wind Speed Gust Speed Precip Events Conditions
12:54 AM 75.9 °F - 73.0 °F 91% 30.02 in 10.0 mi SSW 5.8 mph - N/A   Partly Cloudy
1:54 AM 75.9 °F - 72.0 °F 87% 30.01 in 10.0 mi SW 5.8 mph - N/A   Partly Cloudy
2:54 AM 75.0 °F - 72.0 °F 90% 29.99 in 10.0 mi SW 5.8 mph - N/A   Partly Cloudy
3:54 AM 73.9 °F - 71.1 °F 91% 29.97 in 10.0 mi SW 5.8 mph - N/A   Partly Cloudy
4:54 AM 73.9 °F - 71.1 °F 91% 29.96 in 8.0 mi SW 5.8 mph - N/A   Partly Cloudy
5:54 AM 73.9 °F - 71.1 °F 91% 29.96 in 10.0 mi SW 5.8 mph - N/A   Partly Cloudy
6:54 AM 73.9 °F - 71.1 °F 91% 29.96 in 5.0 mi SW 6.9 mph - N/A   Clear
7:54 AM 77.0 °F - 72.0 °F 84% 29.97 in 6.0 mi SW 6.9 mph - N/A   Haze
8:54 AM 80.1 °F 84.2 °F 73.0 °F 79% 29.97 in 7.0 mi SW 9.2 mph - N/A   Clear
9:54 AM 84.0 °F 91.2 °F 73.9 °F 72% 29.98 in 9.0 mi SW 11.5 mph - N/A   Clear
10:54 AM 87.1 °F 95.4 °F 73.9 °F 65% 29.97 in 10.0 mi WSW 10.4 mph - N/A   Partly Cloudy
11:54 AM 88.0 °F 96.5 °F 73.9 °F 63% 29.96 in 10.0 mi WSW 9.2 mph 20.7 mph N/A   Scattered Clouds
12:54 PM 89.1 °F 98.0 °F 73.9 °F 61% 29.95 in 10.0 mi SW 19.6 mph 25.3 mph N/A   Scattered Clouds
1:54 PM 90.0 °F 99.0 °F 73.9 °F 59% 29.92 in 10.0 mi WSW 13.8 mph 25.3 mph N/A   Scattered Clouds
2:54 PM 91.0 °F 99.3 °F 73.0 °F 55% 29.89 in 10.0 mi SW 16.1 mph 25.3 mph N/A   Scattered Clouds
3:54 PM 90.0 °F 96.9 °F 72.0 °F 55% 29.87 in 10.0 mi SW 19.6 mph 25.3 mph N/A   Scattered Clouds
4:54 PM 91.0 °F 99.3 °F 73.0 °F 55% 29.84 in 10.0 mi WSW 17.3 mph 21.9 mph N/A   Partly Cloudy
5:54 PM 90.0 °F 97.9 °F 73.0 °F 57% 29.83 in 10.0 mi SW 12.7 mph 19.6 mph N/A   Scattered Clouds
6:54 PM 89.1 °F 96.0 °F 72.0 °F 57% 29.83 in 10.0 mi SW 13.8 mph 21.9 mph N/A   Scattered Clouds
7:54 PM 87.1 °F 94.5 °F 73.0 °F 63% 29.83 in 10.0 mi SW 11.5 mph - N/A   Partly Cloudy
8:54 PM 84.0 °F 91.2 °F 73.9 °F 72% 29.83 in 10.0 mi SSW 8.1 mph - N/A   Partly Cloudy
9:54 PM 82.0 °F 87.4 °F 73.0 °F 74% 29.83 in 8.0 mi SW 10.4 mph - N/A   Partly Cloudy
10:54 PM 81.0 °F 84.9 °F 71.1 °F 72% 29.83 in 8.0 mi SW 11.5 mph - N/A   Partly Cloudy
11:54 PM 80.1 °F 83.8 °F 72.0 °F 76% 29.84 in 8.0 mi SW 12.7 mph - N/A   Partly Cloudy